Weather History for KJDD - April, 2014

Change the Weather History Date:

Sunday, April 20, 2014

  Actual Average (KTYR) Record (KTYR)
Temperature  
Mean Temperature 66 °F 66 °F  
Max Temperature 78 °F 76 °F 94 °F (1987)
Min Temperature 55 °F 56 °F 36 °F (1956)
Degree Days  
Heating Degree Days 0 2  
Month to date heating degree days 84  
Since 1 July heating degree days 2249  
Cooling Degree Days 2 3  
Month to date cooling degree days 41  
Year to date cooling degree days 74  
Growing Degree Days 16 (Base 50)    
Moisture  
Dew Point 58 °F    
Average Humidity 75    
Maximum Humidity 100    
Minimum Humidity 44    
Precipitation  
Precipitation 0.00 in 0.11 in 1.63 in (1957)
Month to date precipitation 1.91  
Year to date precipitation 12.90  
Snow  
Snow 0.00 in - - ()
Month to date snowfall  
Since 1 July snowfall  
Snow Depth -    
Sea Level Pressure  
Sea Level Pressure 30.12 in    
Wind  
Wind Speed 2 mph (South)    
Max Wind Speed 13 mph    
Max Gust Speed 16 mph    
Visibility 8 miles    
Events Rain    
T = Trace of Precipitation, MM = Missing Value Source: NWS Daily Summary

Daily Weather History Graph

Daily Weather History Graph

Search for Another Location

Airport or City:

Trip Planner

Search our weather history database for the weather conditions in past years. The results will help you decide how hot, cold, wet, or windy it might be!

Date:

Astronomy

Apr. 20, 2014 Rise Set
Actual Time 6:46 AM CDT 7:55 PM CDT
Civil Twilight 6:20 AM CDT 8:21 PM CDT
Nautical Twilight 5:50 AM CDT 8:51 PM CDT
Astronomical Twilight 5:19 AM CDT 9:23 PM CDT
Moon 12:29 AM CDT (4/20) 11:14 AM CDT (4/20)
Length of Visible Light 14h 00m
Length of Day
13h 09m
Waning Gibbous, 68% of the Moon is Illuminated
Apr 20
Waning Gibbous
Apr 22
Last Quarter
Apr 29
New
May 6
First Quarter
May 14
Full

Hourly Weather History & Observations

Time (CDT) Temp. Dew Point Humidity Pressure Visibility Wind Dir Wind Speed Gust Speed Precip Events Conditions
12:15 AM 59.0 °F 55.4 °F 88% 30.15 in 4.0 mi Calm Calm - N/A   Clear
12:35 AM 57.2 °F 55.4 °F 94% 30.15 in 6.0 mi Calm Calm - N/A   Clear
12:55 AM 59.0 °F 55.4 °F 88% 30.15 in 7.0 mi Calm Calm - N/A   Clear
1:15 AM 57.2 °F 55.4 °F 94% 30.14 in 8.0 mi Calm Calm - N/A   Clear
1:35 AM 57.2 °F 55.4 °F 94% 30.14 in 5.0 mi Calm Calm - N/A   Clear
1:55 AM 57.2 °F 55.4 °F 94% 30.15 in 3.0 mi Calm Calm - N/A   Clear
2:15 AM 55.4 °F 55.4 °F 100% 30.15 in 5.0 mi Calm Calm - N/A   Clear
2:35 AM 55.4 °F 55.4 °F 100% 30.15 in 5.0 mi Calm Calm - N/A   Clear
2:55 AM 55.4 °F 55.4 °F 100% 30.15 in 5.0 mi Calm Calm - N/A   Clear
3:15 AM 55.4 °F 55.4 °F 100% 30.14 in 5.0 mi Calm Calm - N/A   Clear
3:35 AM 55.4 °F 55.4 °F 100% 30.14 in 5.0 mi Calm Calm - N/A   Mostly Cloudy
3:55 AM 55.4 °F 55.4 °F 100% 30.14 in 6.0 mi Calm Calm - N/A   Mostly Cloudy
4:15 AM 55.4 °F 55.4 °F 100% 30.13 in 6.0 mi Calm Calm - N/A   Mostly Cloudy
4:35 AM 55.4 °F 55.4 °F 100% 30.13 in 5.0 mi SE 3.5 mph - N/A   Mostly Cloudy
4:55 AM 57.2 °F 57.2 °F 100% 30.13 in 7.0 mi Calm Calm - N/A   Overcast
5:15 AM 57.2 °F 57.2 °F 100% 30.13 in 7.0 mi Calm Calm - N/A   Overcast
5:35 AM 57.2 °F 55.4 °F 94% 30.13 in 7.0 mi Calm Calm - N/A   Mostly Cloudy
5:55 AM 57.2 °F 55.4 °F 94% 30.14 in 7.0 mi Calm Calm - N/A   Mostly Cloudy
6:15 AM 57.2 °F 57.2 °F 100% 30.14 in 5.0 mi Calm Calm - N/A   Mostly Cloudy
6:35 AM 57.2 °F 57.2 °F 100% 30.14 in 5.0 mi Calm Calm - N/A   Mostly Cloudy
6:55 AM 57.2 °F 57.2 °F 100% 30.15 in 5.0 mi Calm Calm - N/A   Overcast
7:15 AM 57.2 °F 57.2 °F 100% 30.15 in 5.0 mi Calm Calm - N/A   Mostly Cloudy
7:35 AM 57.2 °F 57.2 °F 100% 30.16 in 6.0 mi Calm Calm - N/A   Partly Cloudy
7:55 AM 60.8 °F 59.0 °F 94% 30.16 in 6.0 mi Calm Calm - N/A   Partly Cloudy
8:15 AM 64.4 °F 60.8 °F 88% 30.17 in 7.0 mi South 5.8 mph - N/A   Clear
8:35 AM 66.2 °F 60.8 °F 83% 30.17 in 7.0 mi South 5.8 mph - N/A   Clear
8:55 AM 66.2 °F 60.8 °F 83% 30.16 in 9.0 mi South 5.8 mph - N/A   Clear
9:15 AM 68.0 °F 60.8 °F 78% 30.16 in 8.0 mi South 6.9 mph - N/A   Clear
9:35 AM 69.8 °F 60.8 °F 73% 30.16 in 7.0 mi South 4.6 mph - N/A   Clear
9:55 AM 69.8 °F 62.6 °F 78% 30.16 in 8.0 mi South 10.4 mph - N/A   Clear
10:15 AM 71.6 °F 60.8 °F 69% 30.16 in 9.0 mi SE 3.5 mph - N/A   Clear
10:35 AM 73.4 °F 59.0 °F 61% 30.17 in 8.0 mi SE 6.9 mph - N/A   Clear
10:55 AM 73.4 °F 57.2 °F 57% 30.17 in 9.0 mi South 9.2 mph - N/A   Clear
11:15 AM 73.4 °F 57.2 °F 57% 30.17 in 8.0 mi South 9.2 mph - N/A   Clear
11:35 AM 75.2 °F 55.4 °F 50% 30.16 in 9.0 mi SSE 10.4 mph - N/A   Clear
11:55 AM 75.2 °F 55.4 °F 50% 30.16 in 9.0 mi South 8.1 mph - N/A   Clear
12:15 PM 75.2 °F 55.4 °F 50% 30.16 in 8.0 mi South 10.4 mph 16.1 mph N/A   Scattered Clouds
12:35 PM 75.2 °F 55.4 °F 50% 30.15 in 9.0 mi South 8.1 mph - N/A   Scattered Clouds
12:55 PM 75.2 °F 55.4 °F 50% 30.14 in 9.0 mi SE 9.2 mph - N/A   Scattered Clouds
1:15 PM 77.0 °F 55.4 °F 47% 30.13 in 9.0 mi South 12.7 mph 16.1 mph N/A   Scattered Clouds
1:35 PM 77.0 °F 55.4 °F 47% 30.14 in 9.0 mi South 5.8 mph - N/A   Mostly Cloudy
1:55 PM 77.0 °F 55.4 °F 47% 30.14 in 9.0 mi South 8.1 mph - N/A   Mostly Cloudy
2:15 PM 77.0 °F 55.4 °F 47% 30.13 in 8.0 mi South 9.2 mph - N/A   Mostly Cloudy
2:35 PM 77.0 °F 55.4 °F 47% 30.12 in 9.0 mi South 5.8 mph - N/A   Mostly Cloudy
2:55 PM 77.0 °F 55.4 °F 47% 30.10 in 10.0 mi South 6.9 mph - N/A   Scattered Clouds
3:15 PM 77.0 °F 53.6 °F 44% 30.09 in 9.0 mi South 4.6 mph - N/A   Partly Cloudy
3:35 PM 78.8 °F 55.4 °F 44% 30.09 in 9.0 mi South 6.9 mph - N/A   Scattered Clouds
3:55 PM 78.8 °F 55.4 °F 44% 30.09 in 10.0 mi SSW 9.2 mph - N/A   Mostly Cloudy
4:15 PM 77.0 °F 55.4 °F 47% 30.09 in 9.0 mi SSE 9.2 mph - N/A   Overcast
4:35 PM 77.0 °F 55.4 °F 47% 30.08 in 9.0 mi South 6.9 mph - N/A   Scattered Clouds
4:55 PM 75.2 °F 55.4 °F 50% 30.09 in 9.0 mi SW 5.8 mph - N/A   Mostly Cloudy
5:15 PM 75.2 °F 55.4 °F 50% 30.06 in 9.0 mi Calm Calm - N/A   Mostly Cloudy
5:35 PM 75.2 °F 57.2 °F 53% 30.06 in 9.0 mi West 4.6 mph - N/A   Mostly Cloudy
5:55 PM 75.2 °F 59.0 °F 57% 30.07 in 8.0 mi West 3.5 mph - N/A   Overcast
6:15 PM 75.2 °F 59.0 °F 57% 30.07 in 9.0 mi Calm Calm - N/A   Overcast
6:35 PM 75.2 °F 60.8 °F 61% 30.07 in 9.0 mi Calm Calm - N/A   Overcast
6:55 PM 73.4 °F 60.8 °F 65% 30.07 in 9.0 mi Calm Calm - N/A   Mostly Cloudy
7:15 PM 73.4 °F 60.8 °F 65% 30.06 in 9.0 mi Calm Calm - N/A   Mostly Cloudy
7:35 PM 73.4 °F 64.4 °F 73% 30.07 in 9.0 mi Calm Calm - N/A   Mostly Cloudy
7:55 PM 71.6 °F 62.6 °F 73% 30.06 in 9.0 mi Calm Calm - N/A   Overcast
8:15 PM 69.8 °F 64.4 °F 83% 30.06 in 9.0 mi Calm Calm - N/A   Overcast
8:35 PM 69.8 °F 64.4 °F 83% 30.07 in 10.0 mi Calm Calm - N/A   Overcast
8:55 PM 68.0 °F 64.4 °F 88% 30.08 in 10.0 mi Calm Calm - N/A   Mostly Cloudy
9:15 PM 68.0 °F 62.6 °F 83% 30.07 in 10.0 mi Calm Calm - N/A   Mostly Cloudy
9:35 PM 69.8 °F 62.6 °F 78% 30.09 in 10.0 mi Calm Calm - N/A   Overcast
9:55 PM 68.0 °F 62.6 °F 83% 30.09 in 10.0 mi Calm Calm - N/A   Overcast
10:15 PM 68.0 °F 62.6 °F 83% 30.09 in 10.0 mi Calm Calm - N/A   Mostly Cloudy
10:35 PM 69.8 °F 62.6 °F 78% 30.10 in 10.0 mi Calm Calm - N/A   Overcast
10:55 PM 68.0 °F 62.6 °F 83% 30.10 in 10.0 mi Calm Calm - N/A   Mostly Cloudy
11:15 PM 66.2 °F 62.6 °F 88% 30.09 in 7.0 mi Calm Calm - N/A   Drizzle
11:35 PM 66.2 °F 64.4 °F 94% 30.09 in 7.0 mi Calm Calm - N/A   Mostly Cloudy
11:55 PM 66.2 °F 62.6 °F 88% 30.09 in 4.0 mi NNW 4.6 mph - N/A Rain Heavy Rain